Location: Launay
(47.2429°N, 1.5727°E)
Time: 19:09:19
(UTC+00:00)

Cosmos 1980 Rocket - Pass Details

Date: 19 May 2025
Orbit: 829 x 848 km, 71.0° (Epoch: 22 June)

Event Time Altitude Azimuth Distance (km) Brightness Sun altitude
Rises 22:29:41 0° 327° (NNW) 3,382 6.8 -20.4°
Reaches altitude 10° 22:32:13 10° 321° (NW) 2,445 5.6 -20.5°
Maximum altitude 22:37:28 43° 252° (WSW) 1,163 2.9 -20.8°
Enters shadow 22:39:26 31° 207° (SSW) 1,416 3.0 -20.9°
